ONEWEB-0141 (47287 NORAD) Tracking and Keplerian Element Data

This shows tracking and keplerian element data for the satellite.

Feedback or suggestion? Click here.




ElementValue
Catalog47287
NameONEWEB-0141
Epoch Orbit438
Epoch Day16.16667824
Epoch Year2021
RAAN29.5906
Inclination87.3931
Eccentricity0.001233
Argument of Perigee154.5785
Mean Anonmoly256.6365
Mean Motion15.10884383
Decay Rate-0.01497336
L11 47287U 20100AF 21016.16667824 -.01497336 00000-0 -98451-1 0 9994
L22 47287 87.3931 29.5906 0012330 154.5785 256.6365 15.10884383 4385

Live tracking and technical data element details for ONEWEB-0141 (NORAD 47287). ONEWEB-0141 can be tracked NOW for your location showing map with azimuth and elevation plus other details from your city location.

Track the satellite on the map from your city or location and see movement details for azimuth, elevation, latitude, longitude, range, height, and movement on the map or in text.







IsCatalogInMostPopularTable: catalog: 47287, numindb: 10
Update: records affected: 1



GetName: 47287 ONEWEB-0141

Hit Count: updated at: Sun, 17 Jan 2021 09:38:29 GMT